Погода в Фукусиме

Япония     37°45′35″N   140°27′30″E
темп.,
°C
ветер,
м/с
пор.,
м/с
влажн.,
%
обл.,
%
осадки,
мм/ч
давл.,
гПа
погр.,
м
15 апреля, чт
чт1500:00+3сз511550 0.0 10171025
03:00+2сз39600 0.0 1019671
06:00+3сз27590 0.0 1021758
09:00+9сз47351 0.0 10221552
12:00+12сз46284 0.0 10211798
15:00+14ссз34275 0.0 10201784
18:00+9ссв2245100 0.0 102255
21:00+5ююв1166100 0.0 102630
16 апреля, пт
пт1600:00+5ю1272100 0.0 102756
03:00+4ю1278100 0.0 102748
06:00+5ююз1276100 0.0 1028108
09:00+13ююз594961 0.0 10271696
12:00+14ю61047100 0.0 10261830
15:00+15ю6844100 0.0 10241868
18:00+12ю4964100 0.0 1026720
21:00+8ю2481100 0.0 1027123
17 апреля, сб
сб1700:00+8ю2481100 0.0 1026173
03:00+9ююв1283100 0.0 102581
06:00+9ю1383100 0.0 1024154
09:00+13ю4971100 0.1 10221204
12:00+12ююв3878100 0.5 10191228
15:00+12ю3879100 1.9 1016805
18:00+12ююв2886100 2.1 1014436
21:00+12ююв2388100 3.2 1010215
18 апреля, вс
вс1800:00+11ссв1299100 5.3 100593
03:00+11з1298100 13.3 999101
06:00+9зсз39762 0.6 1000769
09:00+13з410461 0.6 10001342
12:00+15з61137100 0.0 9981699
15:00+12зюз1950100 0.4 9981424
18:00+10ю236679 0.0 997150
21:00+7юз41279100 1.5 998841
19 апреля, пн
пн1900:00+6ююз3888100 2.8 998632
03:00+8з5227927 4.1 9971774
06:00+8ююв0985100 0.4 999475
09:00+9зсз21179100 0.7 10021216
12:00+9сз3975100 0.1 10051182
15:00+11юз276999 0.3 10061269
18:00+9ю23767 0.1 1008111
21:00+6ю23810 0.1 101063